Presure
211 215 220 227 225 252 235 252 292 353 330 344 338 335 327 324 321 321 320 318 326 326 326 328 323 315 131 306 303 306 314 263 260 245 224 217 217 212 207 201 198 194 198
207 216 223 229 230 250 252 288 307 336 326 335 322 325 321 323 324 321 321 320 321 322 322 328 336 333 330 178 326 325 327 323 327 328 321 305 237 232 227 220 210 203 199
214 218 224 228 250 245 271 308 341 327 319 323 324 322 320 321 320 318 319 320 325 326 326 329 329 329 335 336 339 335 333 309 337 346 345 350 346 349 268 239 227 218 206
227 222 231 240 260 260 333 337 321 316 315 318 320 320 321 322 320 323 344 372 369 392 399 386 376 371 370 370 307 378 427 429 295 412 445 396 402 407 397 391 440 239 219
235 226 240 241 255 341 343 322 320 312 320 319 325 319 315 365 343 343 399 369 338 332 453 457 470 443 210 436 439 438 441 458 471 474 486 505 485 394 398 371 444 436 234
224 242 248 237 282 355 331 323 312 319 322 323 318 349 333 351 388 335 334 506 480 463 430 335 392 393 386 385 385 385 393 403 411 440 174 489 501 381 390 375 364 425 401
244 243 250 271 356 291 327 317 318 318 324 327 340 335 402 331 415 500 467 423 404 390 383 372 366 368 364 363 361 364 367 375 384 394 418 479 492 490 318 378 345 357 402
246 240 267 325 333 328 325 321 318 328 343 331 344 379 333 486 466 420 402 373 365 357 351 349 348 342 339 347 351 355 356 368 369 373 396 439 473 305 366 374 360 341 403
253 264 290 341 268 328 326 319 328 352 332 346 342 401 479 454 407 390 372 351 337 335 336 335 335 333 331 336 339 335 345 345 358 369 369 396 460 477 486 362 363 349 367
251 321 327 327 334 330 327 329 347 334 348 322 468 477 438 399 384 350 334 337 338 349 342 354 347 359 365 343 335 339 344 348 339 357 365 366 398 486 486 373 358 361 331
256 302 345 335 333 330 333 345 332 340 333 401 476 418 396 363 343 335 335 333 341 329 331 340 335 345 352 364 339 350 346 341 340 346 366 369 383 509 487 457 359 413 331
305 346 310 338 336 338 348 331 336 360 400 473 410 388 351 337 334 332 337 333 326 331 340 338 337 351 377 363 359 344 338 349 344 352 367 363 382 538 495 482 367 227 364
310 344 339 344 339 350 336 338 382 327 427 417 372 345 335 332 322 328 322 318 339 338 346 355 366 376 366 355 349 352 373 393 375 366 368 359 371 411 486 470 474 350 398
348 344 349 342 352 328 331 387 305 442 445 391 367 338 330 314 305 321 316 295 340 358 382 394 375 353 372 350 351 367 367 364 364 369 369 374 386 396 486 467 472 367 358
348 348 343 353 316 328 356 304 504 437 416 364 342 331 328 300 306 296 278 295 309 391 378 381 395 371 363 351 348 356 360 387 405 453 428 407 411 417 471 462 459 482 344
348 343 349 313 332 351 306 364 491 427 386 367 326 324 302 307 294 278 293 301 307 311 305 320 331 315 345 391 383 383 396 390 408 463 457 429 434 425 461 466 461 466 378
342 349 319 334 331 336 344 440 427 419 367 366 327 320 307 291 294 279 268 268 291 291 312 290 295 306 305 305 313 384 391 397 397 401 487 452 452 453 440 456 457 459 456
351 324 334 322 357 301 437 421 422 416 362 334 322 301 295 293 276 286 273 269 290 298 290 287 303 286 287 292 298 306 310 397 401 401 405 434 471 462 465 447 446 453 472
321 334 321 364 297 390 445 407 404 397 354 333 317 300 290 292 267 282 267 265 278 261 270 287 281 289 298 304 302 301 297 327 395 400 404 419 435 469 463 476 465 453 467
332 319 360 298 446 450 418 397 394 374 358 328 315 304 286 291 272 277 279 278 260 275 280 261 267 281 279 282 292 301 301 304 317 343 383 391 390 399 412 427 468 481 485
321 357 301 456 456 432 398 388 389 360 354 322 309 303 292 279 276 274 268 265 274 270 254 281 277 270 288 281 270 287 292 300 301 306 306 338 361 359 374 388 411 432 451
341 311 468 452 443 416 384 444 382 355 347 320 307 298 292 280 286 276 273 263 258 280 264 255 274 274 278 277 279 286 287 286 290 294 294 305 308 306 330 345 371 388 401
352 464 449 430 425 396 373 432 374 355 343 329 307 302 293 289 286 273 277 270 263 257 274 279 257 276 273 271 262 278 270 267 282 270 284 287 284 291 294 298 309 337 355
460 446 429 418 395 379 362 417 368 354 331 337 315 302 293 290 290 277 277 269 276 268 269 265 278 261 271 270 269 267 267 277 276 272 275 277 279 289 287 278 287 300 301
441 427 417 422 376 368 356 405 371 352 329 345 327 304 294 299 279 288 279 267 272 272 280 261 261 278 269 265 255 269 273 275 269 270 268 272 274 271 276 278 283 287 277
424 411 412 383 362 358 349 345 386 347 339 338 317 320 303 291 293 281 288 278 275 276 268 274 269 268 266 269 268 273 276 274 268 273 282 279 270 272 273 276 276 274 277
Wind_Speed
103 104 104 107 99 111 94 103 102 74 74 65 64 64 66 69 74 76 79 83 88 92 96 102 108 114 48 121 123 124 124 154 157 159 162 153 146 139 141 131 125 117 124
102 108 110 111 105 114 108 106 95 72 72 64 64 65 66 70 74 77 81 84 88 92 95 101 106 112 115 67 122 124 125 124 121 119 116 131 165 159 155 150 142 133 130
112 111 113 111 122 107 113 101 73 72 71 67 68 70 72 74 76 80 83 85 89 91 94 97 98 103 105 110 113 114 116 110 119 113 108 111 115 114 148 154 149 149 140
116 110 116 119 120 112 92 78 78 75 74 72 72 74 76 78 79 80 82 82 83 81 79 81 84 89 92 94 83 100 77 81 73 84 78 93 94 92 96 99 96 152 144
117 115 118 112 115 93 78 82 77 79 76 77 77 76 77 81 78 78 76 75 76 77 50 46 35 39 36 39 36 34 35 39 47 52 54 57 74 93 92 98 94 100 143
116 120 118 106 120 76 80 78 82 79 79 79 79 81 77 77 73 74 73 39 34 26 24 30 36 34 31 36 38 38 37 35 35 32 53 55 58 92 90 96 99 99 109
124 117 120 120 77 92 80 82 80 82 82 82 79 78 74 72 59 37 28 19 18 19 22 27 32 36 38 38 43 43 42 39 35 33 31 40 54 65 76 92 101 102 106
126 118 126 98 79 81 80 79 82 83 81 77 77 74 71 42 29 21 14 16 17 20 24 28 31 35 38 38 38 37 36 36 37 39 31 31 44 46 95 94 99 104 107
128 128 120 81 93 79 79 81 83 78 76 76 71 60 38 23 17 14 12 14 21 26 30 34 37 40 43 43 43 42 39 38 37 39 39 32 39 53 61 95 99 99 104
124 110 92 84 78 78 80 81 77 74 74 67 43 34 17 11 14 11 22 21 24 25 28 30 31 30 39 45 43 44 45 38 40 41 42 41 39 50 58 96 98 98 103
117 112 78 81 79 79 79 76 72 72 66 57 28 15 9 6 14 19 22 24 23 26 31 36 33 40 48 38 44 42 41 41 41 44 45 41 42 49 58 72 98 97 103
113 80 94 78 77 78 74 71 71 66 49 26 8 7 4 12 14 18 22 24 26 29 32 35 39 44 24 25 27 30 32 40 39 42 41 42 39 43 51 58 98 68 102
105 79 79 75 77 73 70 69 64 63 32 9 9 7 10 10 10 14 17 19 28 30 33 38 36 24 23 20 23 29 32 35 41 41 40 44 42 35 45 58 65 100 101
78 77 74 75 72 70 68 63 60 27 19 7 6 8 8 8 7 14 16 10 26 29 25 18 18 16 13 14 20 22 26 29 32 39 47 51 47 40 43 53 54 97 98
74 73 73 70 68 67 67 58 34 20 10 7 11 8 5 9 4 3 21 13 24 17 22 22 11 14 14 18 22 26 24 26 19 24 45 53 50 43 36 44 48 52 99
72 72 68 67 66 67 59 57 27 13 11 9 11 9 10 3 2 13 13 18 23 23 21 30 30 27 20 7 8 10 11 16 25 11 17 37 37 38 30 37 42 47 95
71 68 65 65 65 60 58 24 18 11 12 13 15 13 10 7 4 6 14 16 14 17 24 15 22 26 24 25 27 19 24 30 31 29 3 20 21 25 27 30 37 40 56
68 63 64 63 62 60 30 20 12 14 16 24 20 15 12 8 9 4 9 14 14 19 13 14 21 13 14 17 19 27 25 30 25 28 24 21 10 15 21 27 30 34 37
63 64 62 62 59 48 16 16 9 14 18 28 24 18 15 13 16 5 14 16 6 13 10 15 14 16 19 23 22 23 21 35 33 28 21 17 18 6 12 17 22 27 32
63 63 63 59 33 18 13 12 9 18 18 30 28 25 19 18 13 10 7 4 13 4 3 8 5 13 13 15 21 24 21 20 33 40 39 42 40 37 29 16 12 22 27
63 63 59 32 20 15 11 11 13 21 21 35 31 29 26 19 19 15 15 16 7 9 13 2 1 6 11 5 6 16 18 20 22 27 27 35 39 37 35 29 22 23 16
63 60 29 23 14 11 12 12 17 25 24 39 35 32 29 24 25 22 21 22 16 13 12 13 7 5 9 12 15 17 17 15 17 19 16 23 23 20 27 27 27 24 18
62 29 23 18 10 9 10 11 20 26 28 39 38 35 34 30 31 26 27 27 22 15 13 12 13 8 7 8 8 9 7 7 14 7 11 11 8 12 11 11 13 18 18
28 23 18 13 9 7 9 10 22 27 29 36 43 39 37 34 35 32 32 25 24 20 19 19 16 16 11 12 11 10 10 9 7 3 5 3 3 5 9 13 12 11 15
22 18 13 9 8 7 9 10 26 26 30 29 39 44 40 41 32 36 36 28 30 27 26 23 21 23 21 18 14 15 15 16 15 13 12 11 12 13 12 14 14 16 27
18 15 10 11 9 8 9 9 24 26 30 28 36 42 45 39 40 37 39 38 34 33 31 32 32 29 25 24 22 21 21 20 19 20 21 20 21 22 22 23 26 28 31
Wind_Direction
330 330 328 327 323 324 317 320 316 303 306 294 290 285 282 278 274 271 267 264 262 261 261 260 258 257 260 257 257 258 257 250 251 247 248 252 251 249 250 252 252 253 256
328 328 327 326 323 323 321 317 315 308 309 299 298 291 286 280 276 274 271 269 267 265 264 263 263 262 261 260 261 261 260 258 257 257 254 249 247 249 248 247 249 249 253
325 328 325 324 324 321 321 319 309 311 310 304 296 292 288 284 281 278 276 275 275 273 270 269 267 265 264 263 262 260 259 258 258 255 252 251 251 248 245 248 245 244 247
325 325 324 325 324 322 317 313 315 313 310 306 301 296 292 288 285 283 283 282 278 277 276 273 270 267 265 263 257 263 263 262 253 259 254 246 243 241 240 235 229 241 242
323 324 323 323 324 318 314 317 314 314 308 305 300 299 298 295 293 290 289 284 280 277 275 269 261 262 250 266 268 271 270 267 264 262 256 249 239 236 234 231 224 222 236
324 323 323 319 323 314 317 316 316 313 310 306 305 302 299 298 296 290 289 286 282 269 264 262 260 258 260 265 269 265 267 272 271 271 263 251 245 230 230 229 227 220 217
325 323 323 323 317 321 318 316 315 313 310 307 305 303 303 298 296 290 286 284 272 264 256 255 260 260 259 260 261 264 265 266 265 264 269 258 248 236 231 225 226 225 216
324 322 323 320 319 319 316 314 314 312 309 307 308 307 304 299 289 287 265 269 273 273 273 273 271 271 271 271 268 269 268 272 264 259 266 268 250 253 222 221 222 223 215
324 323 322 322 320 317 315 315 313 312 311 311 310 306 301 288 277 271 272 280 279 278 278 276 274 272 272 271 270 270 268 264 269 263 258 261 257 242 235 219 221 220 219
323 323 321 321 317 316 316 315 314 314 314 311 303 300 295 265 283 291 289 294 295 291 297 291 289 293 285 258 259 259 261 258 257 265 259 249 260 241 237 217 218 217 220
321 323 319 319 318 317 316 316 316 317 315 313 301 300 310 281 299 302 306 306 308 307 302 298 300 302 297 264 254 255 254 249 251 259 262 258 260 239 234 224 216 214 218
321 320 321 319 317 317 317 318 319 317 315 300 290 315 269 285 301 307 311 321 328 315 302 305 304 297 282 265 264 254 255 260 253 265 260 256 264 235 230 228 215 227 214
321 319 320 317 318 318 319 321 320 319 312 262 294 259 270 287 307 328 344 349 327 323 309 295 295 298 286 288 279 277 282 270 257 256 253 247 250 260 227 223 220 214 211
317 318 317 318 319 320 321 321 318 305 298 239 240 249 270 286 304 3 4 331 335 314 319 314 294 317 305 281 281 292 280 271 258 251 247 247 252 245 227 229 225 213 214
317 317 318 319 320 321 323 320 317 301 233 240 207 240 254 265 32 32 288 13 25 356 11 358 296 309 308 306 299 295 286 301 296 252 239 243 247 244 229 224 225 223 213
316 317 319 319 320 322 319 324 316 283 217 214 220 215 263 214 236 285 37 38 34 37 39 37 38 39 27 292 271 321 333 360 8 358 228 226 230 227 223 219 219 218 212
317 318 319 320 321 321 322 314 305 243 216 194 193 185 180 240 105 284 288 306 41 38 44 37 41 40 35 34 35 49 41 30 25 30 63 211 213 211 214 211 214 215 215
317 317 319 320 320 320 316 306 288 222 199 194 189 207 193 171 256 139 267 308 47 42 33 40 43 38 33 38 44 38 31 38 39 37 31 50 200 203 211 217 215 216 217
316 318 319 319 319 322 302 296 261 206 196 191 190 201 201 174 271 184 273 291 61 291 308 44 37 35 37 38 43 46 42 48 52 49 34 50 65 103 189 200 206 212 208
317 318 318 318 313 298 280 277 229 196 194 191 190 187 206 183 229 192 190 139 284 306 63 287 330 38 22 15 29 40 46 57 58 57 71 74 71 70 69 80 168 198 202
318 316 317 312 301 286 261 257 208 193 190 191 196 191 192 209 212 210 231 263 244 261 314 99 19 273 19 30 331 30 38 47 64 65 69 62 69 67 66 67 82 97 123
315 317 311 307 288 272 251 281 205 193 189 194 199 200 198 209 202 210 215 256 280 246 275 307 285 314 341 354 1 14 20 31 49 53 61 69 78 95 68 65 67 78 81
318 313 309 303 263 258 248 271 203 194 195 196 202 201 201 203 204 222 222 242 264 282 276 260 284 290 305 317 308 357 4 349 7 352 48 64 77 75 98 113 95 79 85
314 310 305 294 248 253 242 260 204 197 197 198 201 205 208 208 208 220 226 242 245 252 255 269 257 274 270 275 285 295 306 323 311 299 313 303 179 154 161 188 178 156 163
313 307 296 259 242 246 244 252 205 199 200 204 203 206 211 212 224 220 225 241 246 252 240 262 270 261 265 269 280 276 279 279 276 272 263 265 261 252 249 224 212 204 207
309 302 277 210 245 250 241 245 208 202 200 204 204 208 211 218 220 227 228 234 241 241 248 246 254 262 269 269 271 271 276 277 272 278 283 266 252 249 245 246 246 239 230